GW2298 Weather Reports


Display with metric or nautical units.
time (UTC)temp
F
wind
direction
speed
MPH
gust
MPH
rain 1hr
in
rain 24hr
in
rain mn
in
humidity
%
barometer
mb
20260505083336 46 265 0.0 0.0 0.00 0.00 0.00 53 4461.3
20260505082832 46 348 4.0 5.0 0.00 0.00 0.00 47 4461.0
20260505082328 46 278 0.0 0.0 0.00 0.00 0.00 52 4461.3
20260505081825 47 221 6.0 7.0 0.00 0.00 0.00 50 4461.0
20260505081322 47 265 6.0 7.0 0.00 0.00 0.00 48 4461.0
20260505080819 47 282 3.0 3.0 0.00 0.00 0.00 50 4461.0
20260505080314 47 286 3.0 3.0 0.00 0.00 0.00 51 4461.0
20260505075810 47 306 5.0 5.0 0.00 0.00 0.00 50 4461.0
20260505075307 46 287 3.0 5.0 0.00 0.00 0.00 51 4461.3
20260505074805 47 310 1.0 2.0 0.00 0.00 0.00 52 4461.3
20260505074302 47 320 4.0 5.0 0.00 0.00 0.00 49 4461.0
20260505073759 46 298 2.0 3.0 0.00 0.00 0.00 53 4461.0
20260505073257 46 305 2.0 3.0 0.00 0.00 0.00 53 4461.0
20260505072754 47 310 1.0 2.0 0.00 0.00 0.00 54 4461.0
20260505072250 48 313 3.0 3.0 0.00 0.00 0.00 52 4461.3
20260505071745 50 286 2.0 3.0 0.00 0.00 0.00 49 4461.3
20260505071242 50 357 4.0 5.0 0.00 0.00 0.00 44 4461.0
20260505070740 50 39 6.0 7.0 0.00 0.00 0.00 44 4461.0
20260505070236 50 53 12.0 17.0 0.00 0.00 0.00 43 4460.5
20260505065732 49 62 10.0 15.0 0.00 0.00 0.00 45 4460.5
20260505065229 49 354 3.0 3.0 0.00 0.00 0.00 50 4460.5
20260505064726 48 349 4.0 5.0 0.00 0.00 0.00 50 4461.0
20260505064224 48 2 5.0 5.0 0.00 0.00 0.00 51 4460.5
20260505063721 48 327 3.0 3.0 0.00 0.00 0.00 51 4460.5
20260505063217 48 331 2.0 3.0 0.00 0.00 0.00 52 4460.5
20260505062713 48 343 3.0 3.0 0.00 0.00 0.00 51 4460.5
20260505062211 49 353 4.0 5.0 0.00 0.00 0.00 51 4460.5
20260505061708 49 3 4.0 5.0 0.00 0.00 0.00 50 4460.2
20260505061206 49 355 3.0 3.0 0.00 0.00 0.00 51 4460.2
20260505060703 49 354 4.0 7.0 0.00 0.00 0.00 52 4460.2
20260505060200 50 338 2.0 2.0 0.00 0.00 0.00 51 4460.2
20260505055655 51 27 4.0 5.0 0.00 0.00 0.00 46 4459.9
20260505055152 52 32 6.0 9.0 0.00 0.00 0.00 45 4459.9
20260505054649 52 47 6.0 7.0 0.00 0.00 0.00 45 4459.9
20260505054147 53 58 5.0 7.0 0.00 0.00 0.00 46 4459.9
20260505053645 53 59 6.0 9.0 0.00 0.00 0.00 45 4459.9
20260505053141 53 17 5.0 7.0 0.00 0.00 0.00 45 4459.9
20260505052638 53 21 4.0 5.0 0.00 0.00 0.00 44 4459.9
20260505052135 53 13 3.0 5.0 0.00 0.00 0.00 45 4459.9
20260505051632 53 12 3.0 3.0 0.00 0.00 0.00 45 4459.5
20260505051130 53 357 4.0 5.0 0.00 0.00 0.00 46 4459.9
20260505050628 53 25 5.0 7.0 0.00 0.00 0.00 45 4459.5
20260505050126 53 30 7.0 10.0 0.00 0.00 0.00 46 4459.9
20260505041555 55 48 5.0 7.0 0.00 0.00 0.00 45 4459.5
20260505041053 55 36 7.0 9.0 0.00 0.00 0.00 44 4459.2
20260505040550 55 70 10.0 10.0 0.00 0.00 0.00 44 4459.2
20260505040047 55 58 12.0 15.0 0.00 0.00 0.00 43 4459.5
20260505035543 55 55 18.0 24.0 0.00 0.00 0.00 42 4459.2
20260505035040 55 64 8.0 10.0 0.00 0.00 0.00 43 4459.2
20260505034536 56 58 12.0 14.0 0.00 0.00 0.00 43 4459.2
20260505034033 56 64 6.0 12.0 0.00 0.00 0.00 44 4459.2
20260505033530 56 49 7.0 9.0 0.00 0.00 0.00 43 4459.2
20260505033029 57 96 6.0 7.0 0.00 0.00 0.00 42 4458.7
20260505032526 57 64 9.0 14.0 0.00 0.00 0.00 41 4458.7
20260505032022 57 50 14.0 17.0 0.00 0.00 0.00 41 4458.4
20260505031520 57 78 11.0 17.0 0.00 0.00 0.00 41 4458.4
20260505031016 57 59 12.0 14.0 0.00 0.00 0.00 42 4458.4
20260505030513 57 53 13.0 15.0 0.00 0.00 0.00 42 4458.1
20260505030009 57 57 10.0 12.0 0.00 0.00 0.00 44 4458.1
20260505025505 58 76 6.0 7.0 0.00 0.00 0.00 44 4458.4
20260505025004 58 59 7.0 9.0 0.00 0.00 0.00 42 4458.1
20260505024500 59 46 8.0 10.0 0.00 0.00 0.00 41 4458.1
20260505023958 59 52 7.0 9.0 0.00 0.00 0.00 40 4458.1
20260505023454 59 39 7.0 10.0 0.00 0.00 0.00 41 4457.7
20260505022952 60 53 7.0 10.0 0.00 0.00 0.00 41 4457.7
20260505022449 61 88 4.0 7.0 0.00 0.00 0.00 42 4457.7
20260505021947 61 84 4.0 7.0 0.00 0.00 0.00 38 4457.3
20260505021443 61 210 1.0 2.0 0.00 0.00 0.00 38 4457.7
20260505020939 61 282 2.0 2.0 0.00 0.00 0.00 39 4457.3
20260505020434 61 197 2.0 5.0 0.00 0.00 0.00 38 4457.3
20260505015931 62 79 3.0 3.0 0.00 0.00 0.00 39 4457.3
20260505015428 62 20 5.0 5.0 0.00 0.00 0.00 38 4457.3
20260505014926 62 331 15.0 19.0 0.00 0.00 0.00 37 4457.3
20260505014422 62 168 2.0 3.0 0.00 0.00 0.00 39 4457.0
20260505013919 62 225 5.0 7.0 0.00 0.00 0.00 40 4457.0
20260505013416 62 159 3.0 5.0 0.00 0.00 0.00 40 4457.0
20260505012914 62 114 6.0 9.0 0.00 0.00 0.00 39 4457.0
20260505012412 62 297 4.0 7.0 0.00 0.00 0.00 39 4457.0
20260505011908 63 127 4.0 5.0 0.00 0.00 0.00 39 4457.0
20260505011405 64 172 3.0 3.0 0.00 0.00 0.00 38 4457.0
20260505010901 65 95 5.0 9.0 0.00 0.00 0.00 38 4457.0
20260505010357 65 351 4.0 5.0 0.00 0.00 0.00 37 4457.0
20260505005853 65 217 2.0 2.0 0.00 0.00 0.00 38 4457.0
20260505005350 65 79 3.0 5.0 0.00 0.00 0.00 37 4457.0
20260505004848 66 183 1.0 2.0 0.00 0.00 0.00 38 4457.0
20260505004344 66 275 2.0 2.0 0.00 0.00 0.00 37 4457.0
20260505003841 66 227 3.0 3.0 0.00 0.00 0.00 39 4457.0
20260505003338 65 215 4.0 5.0 0.00 0.00 0.00 37 4457.0
20260505002834 65 180 2.0 3.0 0.00 0.00 0.00 40 4457.0
20260505002331 66 73 3.0 5.0 0.00 0.00 0.00 38 4457.0
20260505001830 65 224 5.0 5.0 0.00 0.00 0.00 40 4457.0
20260505001326 65 167 4.0 5.0 0.00 0.00 0.00 40 4457.0
20260505000824 66 194 7.0 10.0 0.00 0.00 0.00 38 4457.3
20260505000321 66 220 5.0 10.0 0.00 0.00 0.00 40 4457.0
20260504235818 66 194 5.0 7.0 0.00 0.00 0.00 39 4457.0
20260504235315 67 186 3.0 5.0 0.00 0.00 0.00 38 4457.0
20260504234811 68 154 4.0 5.0 0.00 0.00 0.00 37 4456.6
20260504234309 68 116 3.0 5.0 0.00 0.00 0.00 37 4456.6
20260504233805 68 199 6.0 10.0 0.00 0.00 0.00 38 4457.0
20260504233301 68 280 5.0 7.0 0.00 0.00 0.00 38 4457.0
20260504232758 68 345 5.0 10.0 0.00 0.00 0.00 37 4456.6
20260504232255 68 60 4.0 5.0 0.00 0.00 0.00 37 4456.6
20260504231752 67 225 6.0 7.0 0.00 0.00 0.00 36 4457.0
20260504231248 67 136 4.0 5.0 0.00 0.00 0.00 38 4456.6
20260504230744 66 183 2.0 3.0 0.00 0.00 0.00 38 4456.6
20260504230243 66 153 2.0 3.0 0.00 0.00 0.00 37 4457.0
20260504225741 67 201 4.0 5.0 0.00 0.00 0.00 38 4456.6
20260504225237 67 168 3.0 3.0 0.00 0.00 0.00 36 4456.6
20260504224735 67 172 3.0 3.0 0.00 0.00 0.00 37 4456.6
20260504224232 68 332 3.0 5.0 0.00 0.00 0.00 35 4456.6
20260504223728 69 241 4.0 7.0 0.00 0.00 0.00 36 4456.6
20260504223223 69 231 2.0 3.0 0.00 0.00 0.00 32 4456.6
20260504222721 69 232 0.0 0.0 0.00 0.00 0.00 33 4456.6
20260504222218 69 343 2.0 3.0 0.00 0.00 0.00 34 4456.6
20260504221715 68 343 3.0 5.0 0.00 0.00 0.00 36 4456.6
20260504221212 68 321 2.0 3.0 0.00 0.00 0.00 34 4457.0
20260504220708 68 325 3.0 5.0 0.00 0.00 0.00 33 4456.6
20260504220206 68 195 1.0 2.0 0.00 0.00 0.00 34 4456.6
20260504215702 67 339 2.0 3.0 0.00 0.00 0.00 34 4456.6
20260504215200 66 12 5.0 5.0 0.00 0.00 0.00 33 4457.0
20260504214655 67 65 5.0 9.0 0.00 0.00 0.00 34 4457.0
20260504214152 67 30 3.0 3.0 0.00 0.00 0.00 35 4457.0
20260504213649 68 28 7.0 7.0 0.00 0.00 0.00 35 4456.6
20260504213145 67 317 3.0 5.0 0.00 0.00 0.00 32 4457.0
20260504212642 68 335 10.0 14.0 0.00 0.00 0.00 32 4457.0
20260504212138 67 46 6.0 7.0 0.00 0.00 0.00 34 4457.0
20260504211636 67 10 7.0 7.0 0.00 0.00 0.00 34 4457.0
20260504211132 67 44 6.0 9.0 0.00 0.00 0.00 32 4457.3
20260504210630 67 54 9.0 14.0 0.00 0.00 0.00 36 4457.0
20260504210126 67 127 5.0 9.0 0.00 0.00 0.00 33 4457.3
20260504205624 67 87 2.0 3.0 0.00 0.00 0.00 33 4457.3
20260504205121 67 129 2.0 5.0 0.00 0.00 0.00 34 4457.0
20260504204620 67 87 2.0 5.0 0.00 0.00 0.00 34 4457.0
20260504204118 66 21 8.0 9.0 0.00 0.00 0.00 32 4457.0
20260504203616 66 78 3.0 3.0 0.00 0.00 0.00 32 4457.0
20260504203114 67 103 0.0 2.0 0.00 0.00 0.00 34 4457.3
20260504202609 66 42 2.0 3.0 0.00 0.00 0.00 35 4457.3
20260504202106 66 37 3.0 3.0 0.00 0.00 0.00 35 4457.7
20260504201603 67 73 2.0 5.0 0.00 0.00 0.00 34 4457.3
20260504201101 66 81 0.0 0.0 0.00 0.00 0.00 32 4457.3
20260504200556 65 45 10.0 14.0 0.00 0.00 0.00 36 4457.7
20260504200054 66 357 8.0 10.0 0.00 0.00 0.00 35 4457.7
20260504195550 65 71 0.0 2.0 0.00 0.00 0.00 37 4457.3
20260504195046 65 55 9.0 12.0 0.00 0.00 0.00 36 4457.7
20260504194543 65 40 8.0 10.0 0.00 0.00 0.00 37 4457.3
20260504194038 64 51 4.0 5.0 0.00 0.00 0.00 36 4457.7
20260504193535 64 76 7.0 10.0 0.00 0.00 0.00 37 4458.1
20260504193034 64 26 5.0 7.0 0.00 0.00 0.00 37 4457.7
20260504192532 64 46 6.0 9.0 0.00 0.00 0.00 38 4457.7
20260504192030 64 32 8.0 12.0 0.00 0.00 0.00 39 4457.7
20260504191527 64 76 5.0 7.0 0.00 0.00 0.00 38 4458.1
20260504191023 63 44 4.0 5.0 0.00 0.00 0.00 38 4458.1
20260504190520 63 71 7.0 9.0 0.00 0.00 0.00 35 4458.1
20260504190015 63 45 11.0 14.0 0.00 0.00 0.00 35 4458.1
20260504185513 63 87 9.0 12.0 0.00 0.00 0.00 34 4458.1
20260504185009 63 51 12.0 14.0 0.00 0.00 0.00 36 4458.1
20260504184504 63 37 4.0 5.0 0.00 0.00 0.00 39 4458.1
20260504184000 62 74 5.0 7.0 0.00 0.00 0.00 36 4458.4
20260504183457 63 51 11.0 14.0 0.00 0.00 0.00 35 4458.1
20260504182955 63 39 7.0 10.0 0.00 0.00 0.00 38 4458.4
20260504182452 62 47 7.0 10.0 0.00 0.00 0.00 38 4458.4
20260504181949 62 83 7.0 12.0 0.00 0.00 0.00 37 4458.7
20260504181446 62 71 8.0 10.0 0.00 0.00 0.00 38 4458.4
20260504180944 62 59 6.0 10.0 0.00 0.00 0.00 39 4458.4
20260504180443 62 41 11.0 15.0 0.00 0.00 0.00 36 4458.7
20260504175941 62 16 4.0 5.0 0.00 0.00 0.00 39 4458.4
20260504175438 61 16 8.0 12.0 0.00 0.00 0.00 39 4458.4
20260504174936 62 49 16.0 19.0 0.00 0.00 0.00 37 4458.7
20260504174433 61 47 7.0 9.0 0.00 0.00 0.00 40 4458.7
20260504173930 61 50 13.0 15.0 0.00 0.00 0.00 37 4458.7
20260504173426 61 55 9.0 10.0 0.00 0.00 0.00 38 4458.7
20260504172924 60 32 9.0 10.0 0.00 0.00 0.00 38 4458.7
20260504172420 61 48 14.0 17.0 0.00 0.00 0.00 37 4458.7
20260504171916 60 26 11.0 15.0 0.00 0.00 0.00 39 4458.7
20260504171414 60 47 11.0 14.0 0.00 0.00 0.00 37 4458.7
20260504170911 59 49 8.0 10.0 0.00 0.00 0.00 38 4459.2
20260504170407 59 51 13.0 19.0 0.00 0.00 0.00 39 4459.2
20260504160326 57 51 11.0 14.0 0.00 0.00 0.00 42 4459.5
20260504150750 56 23 3.0 7.0 0.00 0.00 0.00 49 4459.5
20260504150247 56 337 3.0 3.0 0.00 0.00 0.00 47 4459.9
20260504141217 47 172 1.0 2.0 0.00 0.00 0.00 76 4459.5
20260504140714 46 172 1.0 2.0 0.00 0.00 0.00 76 4459.5
20260504140209 45 172 0.0 0.0 0.00 0.00 0.00 75 4459.5
20260504130637 39 197 3.0 3.0 0.00 0.00 0.00 89 4458.4
20260504130134 39 197 0.0 0.0 0.00 0.00 0.00 89 4458.7
20260504110525 39 214 0.0 0.0 0.00 0.00 0.00 84 4458.1
20260504100442 41 214 0.0 0.0 0.00 0.00 0.00 84 4457.0